| time (UTC) | temp F | wind direction | speed MPH | gust MPH | rain 1hr in | rain 24hr in | rain mn in | humidity % | barometer mb |
| 20260509171447 | 59 | 26 | 1.0 | 7.0 | 0.00 | 0.00 | 0.00 | 27 | 1019.0 |
| 20260509170547 | 60 | 21 | 1.0 | 8.0 | 0.00 | 0.00 | 0.00 | 25 | 1019.2 |
| 20260509165647 | 62 | 61 | 2.0 | 7.0 | 0.00 | 0.00 | 0.00 | 23 | 1019.0 |
| 20260509164747 | 64 | 111 | 2.0 | 8.0 | 0.00 | 0.00 | 0.00 | 20 | 1018.9 |
| 20260509161147 | 63 | 1 | 2.0 | 6.0 | 0.00 | 0.00 | 0.00 | 23 | 1019.2 |
| 20260509160247 | 62 | 358 | 2.0 | 9.0 | 0.00 | 0.00 | 0.00 | 23 | 1019.3 |
| 20260509154447 | 66 | 64 | 2.0 | 8.0 | 0.00 | 0.00 | 0.00 | 17 | 1019.3 |
| 20260509153547 | 67 | 95 | 4.0 | 9.0 | 0.00 | 0.00 | 0.00 | 16 | 1019.2 |
| 20260509152647 | 67 | 70 | 3.0 | 7.0 | 0.00 | 0.00 | 0.00 | 15 | 1019.3 |
| 20260509151747 | 66 | 97 | 4.0 | 7.0 | 0.00 | 0.00 | 0.00 | 18 | 1019.1 |
| 20260509150847 | 62 | 314 | 1.0 | 3.0 | 0.00 | 0.00 | 0.00 | 26 | 1019.2 |
| 20260509145947 | 62 | 308 | 1.0 | 5.0 | 0.00 | 0.00 | 0.00 | 26 | 1019.1 |
| 20260509145047 | 63 | 28 | 2.0 | 4.0 | 0.00 | 0.00 | 0.00 | 21 | 1019.1 |
| 20260509144147 | 65 | 15 | 3.0 | 7.0 | 0.00 | 0.00 | 0.00 | 20 | 1019.1 |
| 20260509143247 | 65 | 49 | 3.0 | 7.0 | 0.00 | 0.00 | 0.00 | 20 | 1019.1 |
| 20260509142347 | 64 | 74 | 0.0 | 5.0 | 0.00 | 0.00 | 0.00 | 21 | 1019.4 |
| 20260509141447 | 64 | 105 | 0.0 | 5.0 | 0.00 | 0.00 | 0.00 | 22 | 1019.4 |
| 20260509140547 | 65 | 80 | 2.0 | 6.0 | 0.00 | 0.00 | 0.00 | 20 | 1019.4 |
| 20260509135647 | 67 | 80 | 2.0 | 6.0 | 0.00 | 0.00 | 0.00 | 19 | 1019.5 |
| 20260509134747 | 66 | 86 | 1.0 | 8.0 | 0.00 | 0.00 | 0.00 | 20 | 1019.5 |
| 20260509133847 | 66 | 84 | 2.0 | 9.0 | 0.00 | 0.00 | 0.00 | 22 | 1019.4 |
| 20260509132947 | 66 | 65 | 2.0 | 10.0 | 0.00 | 0.00 | 0.00 | 21 | 1019.6 |
| 20260509132047 | 67 | 332 | 5.0 | 9.0 | 0.00 | 0.00 | 0.00 | 21 | 1019.7 |
| 20260509131147 | 66 | 351 | 1.0 | 4.0 | 0.00 | 0.00 | 0.00 | 20 | 1019.9 |
| 20260509125347 | 65 | 318 | 0.0 | 4.0 | 0.00 | 0.00 | 0.00 | 24 | 1020.1 |
| 20260509123547 | 62 | 292 | 1.0 | 5.0 | 0.00 | 0.00 | 0.00 | 26 | 1020.2 |
| 20260509122647 | 62 | 288 | 2.0 | 6.0 | 0.00 | 0.00 | 0.00 | 28 | 1020.3 |
| 20260509121747 | 61 | 36 | 2.0 | 5.0 | 0.00 | 0.00 | 0.00 | 29 | 1020.2 |
| 20260509115947 | 67 | 327 | 4.0 | 7.0 | 0.00 | 0.00 | 0.00 | 15 | 1020.2 |
| 20260509115047 | 70 | 321 | 0.0 | 3.0 | 0.00 | 0.00 | 0.00 | 18 | 1020.3 |
| 20260509113247 | 69 | 310 | 1.0 | 4.0 | 0.00 | 0.00 | 0.00 | 19 | 1020.3 |
| 20260509112347 | 67 | 358 | 0.0 | 3.0 | 0.00 | 0.00 | 0.00 | 25 | 1020.4 |
| 20260509111447 | 65 | 1 | 1.0 | 3.0 | 0.00 | 0.00 | 0.00 | 28 | 1020.5 |
| 20260509110547 | 62 | 1 | 0.0 | 3.0 | 0.00 | 0.00 | 0.00 | 32 | 1020.5 |
| 20260509105647 | 61 | 301 | 0.0 | 3.0 | 0.00 | 0.00 | 0.00 | 32 | 1020.8 |
| 20260509104747 | 62 | 311 | 0.0 | 3.0 | 0.00 | 0.00 | 0.00 | 31 | 1020.9 |
| 20260509102947 | 64 | 328 | 2.0 | 4.0 | 0.00 | 0.00 | 0.00 | 27 | 1020.9 |
| 20260509102047 | 65 | 132 | 2.0 | 5.0 | 0.00 | 0.00 | 0.00 | 27 | 1020.8 |
| 20260509094447 | 61 | 340 | 0.0 | 4.0 | 0.00 | 0.00 | 0.00 | 37 | 1021.1 |
| 20260509092646 | 59 | 3 | 2.0 | 4.0 | 0.00 | 0.00 | 0.00 | 41 | 1021.1 |
| 20260509091747 | 57 | 341 | 2.0 | 4.0 | 0.00 | 0.00 | 0.00 | 42 | 1021.0 |
| 20260509090847 | 56 | 114 | 1.0 | 4.0 | 0.00 | 0.00 | 0.00 | 44 | 1021.0 |
| 20260509085946 | 56 | 23 | 1.0 | 4.0 | 0.00 | 0.00 | 0.00 | 42 | 1021.1 |
| 20260509085046 | 57 | 23 | 2.0 | 4.0 | 0.00 | 0.00 | 0.00 | 41 | 1021.0 |
| 20260509084147 | 59 | 339 | 1.0 | 4.0 | 0.00 | 0.00 | 0.00 | 39 | 1021.1 |
| 20260509082347 | 59 | 346 | 0.0 | 4.0 | 0.00 | 0.00 | 0.00 | 44 | 1020.9 |
| 20260509081446 | 58 | 344 | 1.0 | 4.0 | 0.00 | 0.00 | 0.00 | 44 | 1020.9 |
| 20260509080547 | 57 | 261 | 0.0 | 4.0 | 0.00 | 0.00 | 0.00 | 45 | 1021.0 |
| 20260509075647 | 57 | 151 | 1.0 | 4.0 | 0.00 | 0.00 | 0.00 | 45 | 1021.0 |
| 20260509073846 | 59 | 158 | 1.0 | 4.0 | 0.00 | 0.00 | 0.00 | 43 | 1020.9 |
| 20260509072946 | 59 | 22 | 2.0 | 3.0 | 0.00 | 0.00 | 0.00 | 45 | 1021.1 |
| 20260509072046 | 58 | 326 | 1.0 | 4.0 | 0.00 | 0.00 | 0.00 | 45 | 1021.1 |
| 20260509070247 | 58 | 304 | 2.0 | 6.0 | 0.00 | 0.00 | 0.00 | 45 | 1021.1 |
| 20260509065346 | 58 | 136 | 0.0 | 4.0 | 0.00 | 0.00 | 0.00 | 45 | 1021.2 |
| 20260509064446 | 59 | 198 | 1.0 | 4.0 | 0.00 | 0.00 | 0.00 | 44 | 1020.9 |
| 20260509063546 | 60 | 102 | 0.0 | 4.0 | 0.00 | 0.00 | 0.00 | 43 | 1021.0 |
| 20260509062647 | 60 | 71 | 3.0 | 4.0 | 0.00 | 0.00 | 0.00 | 43 | 1021.0 |
| 20260509061747 | 59 | 338 | 1.0 | 3.0 | 0.00 | 0.00 | 0.00 | 46 | 1020.8 |
| 20260509060846 | 59 | 1 | 0.0 | 2.0 | 0.00 | 0.00 | 0.00 | 46 | 1020.8 |
| 20260509055946 | 59 | 23 | 1.0 | 4.0 | 0.00 | 0.00 | 0.00 | 51 | 1020.7 |
| 20260509055047 | 58 | 78 | 2.0 | 4.0 | 0.00 | 0.00 | 0.00 | 50 | 1020.7 |
| 20260509054146 | 59 | 1 | 1.0 | 4.0 | 0.00 | 0.00 | 0.00 | 54 | 1020.6 |
| 20260509053246 | 59 | 1 | 1.0 | 3.0 | 0.00 | 0.00 | 0.00 | 59 | 1020.8 |
| 20260509052346 | 58 | 1 | 0.0 | 2.0 | 0.00 | 0.00 | 0.00 | 75 | 1020.7 |
| 20260509050546 | 50 | 1 | 1.0 | 2.0 | 0.00 | 0.00 | 0.00 | 91 | 1020.5 |
| 20260509045646 | 49 | 0 | 0.0 | 0.0 | 0.00 | 0.00 | 0.00 | 91 | 1020.5 |
| 20260509044746 | 47 | 0 | 0.0 | 0.0 | 0.00 | 0.00 | 0.00 | 90 | 1020.5 |
| 20260509043846 | 46 | 0 | 0.0 | 0.0 | 0.00 | 0.00 | 0.00 | 89 | 1020.5 |
| 20260509042946 | 46 | 0 | 0.0 | 0.0 | 0.00 | 0.00 | 0.00 | 89 | 1020.4 |
| 20260509041146 | 45 | 0 | 0.0 | 0.0 | 0.00 | 0.00 | 0.00 | 87 | 1020.4 |
| 20260509035346 | 45 | 0 | 0.0 | 0.0 | 0.00 | 0.00 | 0.00 | 86 | 1020.4 |
| 20260509034446 | 44 | 0 | 0.0 | 0.0 | 0.00 | 0.00 | 0.00 | 86 | 1020.2 |
| 20260509033546 | 44 | 1 | 0.0 | 1.0 | 0.00 | 0.00 | 0.00 | 85 | 1020.4 |
| 20260509031746 | 44 | 0 | 0.0 | 0.0 | 0.00 | 0.00 | 0.00 | 84 | 1020.2 |
| 20260509025946 | 45 | 0 | 0.0 | 0.0 | 0.00 | 0.00 | 0.00 | 83 | 1020.1 |
| 20260509025046 | 45 | 0 | 0.0 | 0.0 | 0.00 | 0.00 | 0.00 | 83 | 1020.2 |
| 20260509024146 | 45 | 0 | 0.0 | 0.0 | 0.00 | 0.00 | 0.00 | 83 | 1020.3 |
| 20260509022346 | 45 | 0 | 0.0 | 0.0 | 0.00 | 0.00 | 0.00 | 82 | 1020.2 |
| 20260509021446 | 45 | 0 | 0.0 | 0.0 | 0.00 | 0.00 | 0.00 | 82 | 1020.3 |
| 20260509020546 | 45 | 0 | 0.0 | 0.0 | 0.00 | 0.00 | 0.00 | 81 | 1020.3 |
| 20260509014746 | 46 | 1 | 0.0 | 1.0 | 0.00 | 0.00 | 0.00 | 81 | 1020.5 |
| 20260509013846 | 46 | 1 | 0.0 | 2.0 | 0.00 | 0.00 | 0.00 | 81 | 1020.3 |
| 20260509012946 | 46 | 1 | 0.0 | 2.0 | 0.00 | 0.00 | 0.00 | 80 | 1020.5 |
| 20260509012046 | 46 | 1 | 0.0 | 1.0 | 0.00 | 0.00 | 0.00 | 80 | 1020.6 |
| 20260509011147 | 46 | 1 | 0.0 | 1.0 | 0.00 | 0.00 | 0.00 | 80 | 1020.5 |
| 20260509010246 | 46 | 1 | 0.0 | 2.0 | 0.00 | 0.00 | 0.00 | 79 | 1020.5 |
| 20260509005346 | 47 | 1 | 1.0 | 2.0 | 0.00 | 0.00 | 0.00 | 79 | 1020.5 |
| 20260509004446 | 47 | 1 | 0.0 | 2.0 | 0.00 | 0.00 | 0.00 | 79 | 1020.6 |
| 20260509003546 | 47 | 1 | 0.0 | 2.0 | 0.00 | 0.00 | 0.00 | 79 | 1020.7 |
| 20260509002646 | 46 | 1 | 0.0 | 2.0 | 0.00 | 0.00 | 0.00 | 79 | 1020.7 |
| 20260509001746 | 46 | 1 | 0.0 | 2.0 | 0.00 | 0.00 | 0.00 | 79 | 1020.6 |
| 20260509000846 | 47 | 1 | 0.0 | 2.0 | 0.00 | 0.00 | 0.00 | 79 | 1020.7 |
| 20260508235946 | 47 | 1 | 0.0 | 2.0 | 0.00 | 0.00 | 0.00 | 79 | 1020.7 |
| 20260508234146 | 47 | 1 | 0.0 | 1.0 | 0.00 | 0.00 | 0.00 | 79 | 1020.6 |
| 20260508233246 | 47 | 81 | 0.0 | 3.0 | 0.00 | 0.00 | 0.00 | 79 | 1020.9 |
| 20260508232346 | 47 | 90 | 0.0 | 2.0 | 0.00 | 0.00 | 0.00 | 79 | 1020.8 |
| 20260508231446 | 47 | 90 | 1.0 | 2.0 | 0.00 | 0.00 | 0.00 | 78 | 1020.6 |
| 20260508230546 | 47 | 90 | 0.0 | 1.0 | 0.00 | 0.00 | 0.00 | 78 | 1020.7 |
| 20260508225647 | 47 | 90 | 0.0 | 2.0 | 0.00 | 0.00 | 0.00 | 77 | 1020.8 |
| 20260508224746 | 47 | 90 | 0.0 | 2.0 | 0.00 | 0.00 | 0.00 | 78 | 1020.9 |
| 20260508223846 | 47 | 124 | 0.0 | 3.0 | 0.00 | 0.00 | 0.00 | 78 | 1020.9 |
| 20260508222946 | 47 | 314 | 0.0 | 2.0 | 0.00 | 0.00 | 0.00 | 77 | 1020.9 |
| 20260508222046 | 47 | 314 | 1.0 | 2.0 | 0.00 | 0.00 | 0.00 | 77 | 1020.9 |
| 20260508221146 | 47 | 315 | 0.0 | 2.0 | 0.00 | 0.00 | 0.00 | 77 | 1020.9 |
| 20260508220246 | 48 | 315 | 0.0 | 2.0 | 0.00 | 0.00 | 0.00 | 77 | 1020.8 |
| 20260508212646 | 47 | 314 | 2.0 | 4.0 | 0.00 | 0.00 | 0.00 | 77 | 1020.7 |
| 20260508211746 | 47 | 325 | 0.0 | 2.0 | 0.00 | 0.00 | 0.00 | 76 | 1020.7 |
| 20260508210846 | 47 | 344 | 0.0 | 2.0 | 0.00 | 0.00 | 0.00 | 75 | 1020.7 |
| 20260508205946 | 47 | 316 | 0.0 | 2.0 | 0.00 | 0.00 | 0.00 | 74 | 1020.6 |
| 20260508205046 | 47 | 294 | 0.0 | 2.0 | 0.00 | 0.00 | 0.00 | 73 | 1020.7 |
| 20260508204146 | 48 | 292 | 1.0 | 4.0 | 0.00 | 0.00 | 0.00 | 73 | 1020.7 |
| 20260508203246 | 48 | 312 | 0.0 | 3.0 | 0.00 | 0.00 | 0.00 | 73 | 1020.7 |
| 20260508202346 | 48 | 292 | 1.0 | 4.0 | 0.00 | 0.00 | 0.00 | 73 | 1020.4 |
| 20260508201447 | 47 | 292 | 0.0 | 2.0 | 0.00 | 0.00 | 0.00 | 72 | 1020.5 |
| 20260508200546 | 47 | 295 | 0.0 | 3.0 | 0.00 | 0.00 | 0.00 | 72 | 1020.5 |
| 20260508195646 | 46 | 302 | 1.0 | 3.0 | 0.00 | 0.00 | 0.00 | 69 | 1020.4 |
| 20260508193846 | 46 | 292 | 0.0 | 1.0 | 0.00 | 0.00 | 0.00 | 61 | 1020.3 |
| 20260508192046 | 48 | 292 | 0.0 | 2.0 | 0.00 | 0.00 | 0.00 | 59 | 1019.8 |
| 20260508191146 | 49 | 0 | 0.0 | 0.0 | 0.00 | 0.00 | 0.00 | 57 | 1019.8 |
| 20260508190247 | 50 | 292 | 0.0 | 2.0 | 0.00 | 0.00 | 0.00 | 56 | 1019.9 |
| 20260508185346 | 50 | 292 | 0.0 | 2.0 | 0.00 | 0.00 | 0.00 | 55 | 1019.6 |
| 20260508184446 | 51 | 292 | 0.0 | 3.0 | 0.00 | 0.00 | 0.00 | 53 | 1019.5 |
| 20260508183546 | 51 | 311 | 1.0 | 3.0 | 0.00 | 0.00 | 0.00 | 52 | 1019.4 |
| 20260508182646 | 52 | 1 | 0.0 | 4.0 | 0.00 | 0.00 | 0.00 | 50 | 1019.3 |
| 20260508181746 | 52 | 327 | 0.0 | 3.0 | 0.00 | 0.00 | 0.00 | 49 | 1019.4 |
| 20260508180846 | 53 | 292 | 0.0 | 3.0 | 0.00 | 0.00 | 0.00 | 48 | 1019.3 |
| 20260508175047 | 53 | 344 | 2.0 | 4.0 | 0.00 | 0.00 | 0.00 | 48 | 1019.0 |
| 20260508174146 | 53 | 292 | 1.0 | 4.0 | 0.00 | 0.00 | 0.00 | 47 | 1018.8 |
| 20260508173246 | 53 | 292 | 2.0 | 4.0 | 0.00 | 0.00 | 0.00 | 46 | 1018.9 |
| 20260508172346 | 54 | 331 | 2.0 | 5.0 | 0.00 | 0.00 | 0.00 | 44 | 1018.6 |